Location: Strawberry
(45.6646°N, 111.9596°W)
Time: 21:26:32
(UTC+00:00)

Courier 1B Rocket - Pass Details

Date: 14 October 2022
Orbit: 920 x 1202 km, 28.3° (Epoch: 03 December)

Event Time Altitude Azimuth Distance (km) Brightness Sun altitude
Rises 20:53:14 0° 212° (SSW) 4,088 9.4 31.5°
Reaches altitude 10° 20:57:57 10° 187° (S) 3,115 8.9 31.1°
Maximum altitude 21:01:18 13° 161° (SSE) 2,850 8.1 30.8°
Drops below altitude 10° 21:04:37 10° 135° (SE) 3,074 7.9 30.5°
Sets 21:09:11 0° 111° (ESE) 3,988 8.1 30.1°
